Back to catalog

BREEZE-M R/B

AliveHEO
NORAD 37219·ROCKET BODY·🇷🇺 Russia

Launched Nov 14, 2010 from Baikonur Cosmodrome

Loading…

Next Passes (next 24 hours)

TLE

AgingSource: Space-Track

Epoch: Aug 29, 2026, 09:40 UTC

1 37219U 10061B   26241.40282894 -.00000077  00000-0  00000+0 0  9996
2 37219  18.7439 315.6273 5455590 260.1203  36.4980  1.94593277112157

Track BREEZE-M R/B in real time with AllMySat

Download on the App Store